EW3608 Weather Reports


time (UTC)temp
C
wind
direction
speed
KPH
gust
KPH
rain 1hr
cm
rain 24hr
cm
rain mn
cm
humidity
%
barometer
mb
20260504151002 16 221 0.0 9.7 0.00 0.00 0.00 30 1009.8
20260504150502 16 235 1.6 9.7 0.00 0.00 0.00 29 1009.8
20260504141004 10 281 1.6 6.4 0.00 0.00 0.00 45 1009.8
20260504140502 10 257 1.6 6.4 0.00 0.00 0.00 50 1009.8
20260504130505 6 165 0.0 3.2 0.00 0.00 0.00 57 1009.6
20260504110505 5 179 0.0 3.2 0.00 0.00 0.00 60 1009.5
20260504100502 5 171 0.0 3.2 0.00 0.00 0.00 58 1009.8
20260504082008 7 187 0.0 3.2 0.00 0.00 0.00 48 1010.7
20260504081523 7 192 1.6 3.2 0.00 0.00 0.00 47 1010.7
20260504081006 7 212 0.0 3.2 0.00 0.00 0.00 47 1010.8
20260504080503 7 229 0.0 3.2 0.00 0.00 0.00 45 1010.9
20260504050509 16 296 1.6 11.3 0.00 0.00 0.00 28 1011.0
20260504050024 16 223 3.2 11.3 0.00 0.00 0.00 27 1011.0
20260504045510 16 247 3.2 11.3 0.00 0.00 0.00 27 1011.0
20260504045011 16 273 1.6 14.5 0.00 0.00 0.00 27 1011.1
20260504044508 16 257 3.2 14.5 0.00 0.00 0.00 27 1011.1
20260504044003 16 215 4.8 12.9 0.00 0.00 0.00 27 1011.2
20260504043504 16 232 3.2 14.5 0.00 0.00 0.00 27 1011.2
20260504043019 16 82 3.2 14.5 0.00 0.00 0.00 27 1011.2
20260504042508 16 223 4.8 14.5 0.00 0.00 0.00 27 1011.2
20260504042011 16 269 3.2 16.1 0.00 0.00 0.00 27 1011.3
20260504041525 16 277 3.2 16.1 0.00 0.00 0.00 27 1011.3
20260504041008 16 274 8.0 16.1 0.00 0.00 0.00 27 1011.4
20260504040504 16 267 6.4 16.1 0.00 0.00 0.00 27 1011.4
20260504040012 17 258 3.2 14.5 0.00 0.00 0.00 27 1011.4
20260504035507 17 321 3.2 14.5 0.00 0.00 0.00 27 1011.5
20260504035008 17 307 4.8 12.9 0.00 0.00 0.00 27 1011.5
20260504034535 17 265 3.2 12.9 0.00 0.00 0.00 27 1011.6
20260504034008 17 234 4.8 12.9 0.00 0.00 0.00 27 1011.5
20260504033512 17 288 3.2 11.3 0.00 0.00 0.00 27 1011.5
20260504033030 17 237 3.2 11.3 0.00 0.00 0.00 27 1011.6
20260504032503 17 214 1.6 11.3 0.00 0.00 0.00 27 1011.5
20260504032004 17 241 1.6 9.7 0.00 0.00 0.00 27 1011.6
20260504031516 17 221 1.6 9.7 0.00 0.00 0.00 27 1011.6
20260504031007 17 214 0.0 6.4 0.00 0.00 0.00 26 1011.6
20260504030510 17 223 1.6 6.4 0.00 0.00 0.00 26 1011.5
20260504030036 17 219 1.6 8.0 0.00 0.00 0.00 25 1011.5
20260504025509 17 216 0.0 9.7 0.00 0.00 0.00 25 1011.4
20260504025011 17 246 3.2 9.7 0.00 0.00 0.00 25 1011.4
20260504024510 18 223 1.6 4.8 0.00 0.00 0.00 25 1011.4
20260504024008 18 252 1.6 3.2 0.00 0.00 0.00 24 1011.3
20260504023507 18 183 0.0 3.2 0.00 0.00 0.00 24 1011.2
20260504023020 18 194 1.6 3.2 0.00 0.00 0.00 1011.2
20260504022511 18 240 0.0 3.2 0.00 0.00 0.00 1011.2
20260504022011 18 40 0.0 3.2 0.00 0.00 0.00 22 1011.1
20260504021525 18 326 0.0 3.2 0.00 0.00 0.00 22 1011.1
20260504021009 19 213 0.0 4.8 0.00 0.00 0.00 22 1011.1
20260504020505 19 9 0.0 4.8 0.00 0.00 0.00 22 1011.1
20260504020011 19 350 1.6 4.8 0.00 0.00 0.00 22 1011.0
20260504015505 19 270 0.0 4.8 0.00 0.00 0.00 22 1011.0
20260504015010 19 294 1.6 11.3 0.00 0.00 0.00 22 1010.9
20260504014525 19 246 1.6 12.9 0.00 0.00 0.00 22 1010.8
20260504014009 19 211 3.2 12.9 0.00 0.00 0.00 21 1010.7
20260504013507 19 280 1.6 9.7 0.00 0.00 0.00 22 1010.7
20260504013028 20 236 1.6 9.7 0.00 0.00 0.00 22 1010.7
20260504012506 20 248 3.2 11.3 0.00 0.00 0.00 22 1010.7
20260504012006 20 209 3.2 12.9 0.00 0.00 0.00 22 1010.7
20260504011518 20 261 3.2 12.9 0.00 0.00 0.00 22 1010.8
20260504011007 20 283 4.8 12.9 0.00 0.00 0.00 22 1010.8
20260504010508 20 212 1.6 17.7 0.00 0.00 0.00 22 1010.8
20260504010024 20 232 3.2 17.7 0.00 0.00 0.00 21 1010.8
20260504005510 20 287 4.8 16.1 0.00 0.00 0.00 21 1010.9
20260504005013 20 326 3.2 14.5 0.00 0.00 0.00 22 1011.1
20260504004511 20 283 4.8 14.5 0.00 0.00 0.00 22 1011.2
20260504004006 20 226 3.2 12.9 0.00 0.00 0.00 21 1011.2
20260504003511 20 275 3.2 4.8 0.00 0.00 0.00 22 1011.4
20260504003023 20 271 1.6 4.8 0.00 0.00 0.00 22 1011.5
20260504002510 20 278 1.6 4.8 0.00 0.00 0.00 22 1011.5
20260504002012 20 352 0.0 6.4 0.00 0.00 0.00 22 1011.6
20260504001508 20 337 1.6 8.0 0.00 0.00 0.00 22 1011.7
20260504001003 20 333 3.2 8.0 0.00 0.00 0.00 22 1011.6
20260504000510 20 352 1.6 4.8 0.00 0.00 0.00 22 1011.7
20260504000016 20 337 1.6 9.7 0.00 0.00 0.00 22 1011.6
20260503235507 20 34 4.8 9.7 0.00 0.00 0.00 22 1011.6
20260503235007 21 333 3.2 8.0 0.00 0.00 0.00 22 1011.7
20260503234528 21 168 1.6 3.2 0.00 0.00 0.00 21 1011.9
20260503234007 20 267 1.6 8.0 0.00 0.00 0.00 22 1011.9
20260503233503 20 226 1.6 9.7 0.00 0.00 0.00 22 1011.9
20260503233011 21 225 1.6 9.7 0.00 0.00 0.00 22 1012.0
20260503232506 21 273 1.6 6.4 0.00 0.00 0.00 21 1011.9
20260503232007 21 333 3.2 8.0 0.00 0.00 0.00 21 1011.5
20260503231522 21 336 1.6 8.0 0.00 0.00 0.00 21 1011.4
20260503231009 21 167 0.0 6.4 0.00 0.00 0.00 22 1011.5
20260503230510 21 190 1.6 11.3 0.00 0.00 0.00 22 1011.5
20260503230028 21 109 3.2 19.3 0.00 0.00 0.00 22 1011.5
20260503225503 21 172 3.2 20.9 0.00 0.00 0.00 22 1011.7
20260503225007 20 234 8.0 29.0 0.00 0.00 0.00 24 1011.7
20260503224515 20 89 11.3 29.0 0.00 0.00 0.00 22 1011.8
20260503224007 21 86 4.8 20.9 0.00 0.00 0.00 22 1011.9
20260503223509 21 255 8.0 24.1 0.00 0.00 0.00 20 1011.9
20260503223027 21 343 11.3 24.1 0.00 0.00 0.00 20 1011.6
20260503222507 21 327 4.8 17.7 0.00 0.00 0.00 19 1011.6
20260503222011 21 301 3.2 9.7 0.00 0.00 0.00 18 1011.7
20260503221507 21 339 1.6 16.1 0.00 0.00 0.00 18 1011.6
20260503221006 21 349 3.2 16.1 0.00 0.00 0.00 18 1011.7
20260503220507 21 5 3.2 14.5 0.00 0.00 0.00 18 1011.7
20260503220018 21 314 4.8 14.5 0.00 0.00 0.00 17 1011.7
20260503215510 21 349 4.8 16.1 0.00 0.00 0.00 17 1011.7
20260503215011 21 274 3.2 25.7 0.00 0.00 0.00 17 1011.8
20260503214525 22 327 16.1 25.7 0.00 0.00 0.00 17 1011.9
20260503214007 22 306 6.4 14.5 0.00 0.00 0.00 17 1012.0
20260503213506 22 316 4.8 14.5 0.00 0.00 0.00 16 1012.0
20260503213012 22 282 3.2 20.9 0.00 0.00 0.00 16 1011.9
20260503212507 22 269 9.7 19.3 0.00 0.00 0.00 16 1011.9
20260503212012 22 209 8.0 20.9 0.00 0.00 0.00 17 1011.9
20260503211523 22 244 11.3 20.9 0.00 0.00 0.00 16 1011.9
20260503211004 22 209 8.0 16.1 0.00 0.00 0.00 16 1012.1
20260503210505 22 196 4.8 17.7 0.00 0.00 0.00 16 1012.1
20260503210015 23 214 8.0 17.7 0.00 0.00 0.00 15 1012.2
20260503205504 23 240 3.2 14.5 0.00 0.00 0.00 16 1012.1
20260503205007 23 254 1.6 14.5 0.00 0.00 0.00 13 1012.2
20260503204517 23 205 6.4 14.5 0.00 0.00 0.00 13 1012.2
20260503204011 23 301 4.8 14.5 0.00 0.00 0.00 13 1012.4
20260503203511 23 187 6.4 14.5 0.00 0.00 0.00 14 1012.5
20260503203011 23 248 4.8 32.2 0.00 0.00 0.00 14 1012.7
20260503202504 23 333 8.0 32.2 0.00 0.00 0.00 14 1012.8
20260503202004 23 194 12.9 30.6 0.00 0.00 0.00 14 1011.6
20260503201512 23 263 9.7 29.0 0.00 0.00 0.00 14 1012.9
20260503201007 22 280 1.6 9.7 0.00 0.00 0.00 15 1012.9
20260503200510 22 349 4.8 9.7 0.00 0.00 0.00 15 1012.9
20260503200022 22 323 3.2 17.7 0.00 0.00 0.00 15 1012.9
20260503195510 22 248 1.6 17.7 0.00 0.00 0.00 15 1013.0
20260503195005 22 306 6.4 16.1 0.00 0.00 0.00 15 1013.0
20260503194509 22 341 3.2 22.5 0.00 0.00 0.00 15 1013.2
20260503194005 22 9 3.2 22.5 0.00 0.00 0.00 15 1013.1
20260503193506 22 341 4.8 16.1 0.00 0.00 0.00 15 1013.3
20260503193015 22 352 6.4 14.5 0.00 0.00 0.00 15 1013.3
20260503192507 22 303 6.4 12.9 0.00 0.00 0.00 15 1013.4
20260503192008 22 263 6.4 12.9 0.00 0.00 0.00 14 1013.6
20260503191526 23 323 3.2 14.5 0.00 0.00 0.00 14 1013.6
20260503191006 23 9 3.2 16.1 0.00 0.00 0.00 14 1013.7
20260503190505 23 187 3.2 16.1 0.00 0.00 0.00 14 1013.7
20260503190007 23 342 3.2 20.9 0.00 0.00 0.00 15 1013.9
20260503185506 22 338 4.8 20.9 0.00 0.00 0.00 14 1013.9
20260503185008 22 322 8.0 20.9 0.00 0.00 0.00 15 1014.0
20260503184527 22 217 3.2 17.7 0.00 0.00 0.00 15 1014.1
20260503184013 22 274 3.2 17.7 0.00 0.00 0.00 15 1014.2
20260503183513 22 271 3.2 12.9 0.00 0.00 0.00 15 1014.4
20260503183004 22 330 1.6 16.1 0.00 0.00 0.00 15 1014.5
20260503182507 22 290 3.2 16.1 0.00 0.00 0.00 14 1014.6
20260503182010 22 329 6.4 22.5 0.00 0.00 0.00 15 1014.7
20260503181513 22 360 4.8 22.5 0.00 0.00 0.00 15 1014.8
20260503181008 22 304 3.2 17.7 0.00 0.00 0.00 15 1014.8
20260503180508 22 266 3.2 17.7 0.00 0.00 0.00 15 1015.0
20260503180030 22 225 3.2 22.5 0.00 0.00 0.00 15 1015.1
20260503175507 22 313 1.6 24.1 0.00 0.00 0.00 15 1015.2
20260503175011 22 352 4.8 24.1 0.00 0.00 0.00 15 1015.2
20260503174538 22 288 3.2 19.3 0.00 0.00 0.00 15 1015.4
20260503174010 22 352 4.8 19.3 0.00 0.00 0.00 16 1015.4
20260503173507 21 42 1.6 16.1 0.00 0.00 0.00 16 1015.5
20260503173018 21 334 4.8 17.7 0.00 0.00 0.00 16 1015.6
20260503172508 20 279 3.2 17.7 0.00 0.00 0.00 16 1015.7
20260503172012 20 344 6.4 17.7 0.00 0.00 0.00 17 1015.8
20260503171532 20 296 4.8 12.9 0.00 0.00 0.00 17 1015.8
20260503171013 20 247 1.6 12.9 0.00 0.00 0.00 17 1015.9
20260503170514 20 265 4.8 19.3 0.00 0.00 0.00 17 1015.9